Juliana Airport, Sint Maarten

5:52 AM AST on February 18, 2018 (GMT -0400)
Princess Juliana International

Weather History for TNCM - July, 2012

Change the Weather History Date:

Sunday, July 29, 2012

  Actual Average Record
Temperature  
Mean Temperature 84 °F -  
Max Temperature 88 °F 87 °F 91 °F (1998)
Min Temperature 80 °F 77 °F 75 °F (2001)
Cooling Degree Days 19    
Growing Degree Days 34 (Base 50)    
Moisture  
Dew Point 76 °F    
Average Humidity 73    
Maximum Humidity 89    
Minimum Humidity 59    
Precipitation  
Precipitation 0.04 in 0.13 in - ()
Sea Level Pressure  
Sea Level Pressure 29.97 in    
Wind  
Wind Speed 10 mph ()    
Max Wind Speed 17 mph    
Max Gust Speed -    
Visibility 7.6 miles    
Events Rain    
Averages and records for this station are not official NWS values.
T = Trace of Precipitation, MM = Missing Value Source: Averaged Metar Reports

Daily Weather History Graph

Daily Weather History Graph

Search for Another Location

Airport or City:

Trip Planner

Search our weather history database for the weather conditions in past years. The results will help you decide how hot, cold, wet, or windy it might be!

Date:

Astronomy

Jul. 29, 2012 Rise Set
Actual Time 5:50 AM AST 6:47 PM AST
Civil Twilight 5:26 AM AST 7:10 PM AST
Nautical Twilight 4:59 AM AST 7:38 PM AST
Astronomical Twilight 4:31 AM AST 8:06 PM AST
Moon 3:41 PM AST (7/29) 2:07 AM AST (7/29)
Length of Visible Light 13h 44m
Length of Day
12h 57m
Waxing Gibbous, 85% of the Moon is Illuminated
Jul 29
Waxing Gibbous
Aug 1
Full
Aug 9
Last Quarter
Aug 17
New
Aug 24
First Quarter

Hourly Weather History & Observations

Time (AST) Temp. Heat Index Dew Point Humidity Pressure Visibility Wind Dir Wind Speed Gust Speed Precip Events Conditions
12:00 AM 82.4 °F 89.5 °F 75.2 °F 79% 30.01 in 6.2 mi ENE 12.7 mph - N/A   Scattered Clouds
1:00 AM 82.4 °F 89.5 °F 75.2 °F 79% 29.98 in 6.2 mi ENE 9.2 mph - N/A   Partly Cloudy
2:00 AM 82 °F - 76 °F 76% 29.97 in 25 mi East 11.5 mph - - Rain Light Rain Showers
2:00 AM 82.4 °F 89.5 °F 75.2 °F 79% 29.95 in 6.2 mi ENE 10.4 mph - N/A   Scattered Clouds
3:00 AM 80.6 °F 87.1 °F 77.0 °F 89% 29.95 in 3.7 mi East 6.9 mph - N/A Rain Light Rain Showers
4:00 AM 80.6 °F 87.1 °F 77.0 °F 89% 29.95 in 6.2 mi East 8.1 mph - N/A   Scattered Clouds
5:00 AM 82 °F - 75 °F 75% 29.96 in 7 mi East 12.7 mph - - Rain Light Rain Showers
5:00 AM 82.4 °F 89.5 °F 75.2 °F 79% 29.95 in 6.2 mi East 9.2 mph - N/A Rain Light Rain Showers
6:00 AM 82.4 °F 89.5 °F 75.2 °F 79% 29.98 in 6.2 mi East 6.9 mph - N/A   Scattered Clouds
7:00 AM 82.4 °F 89.5 °F 75.2 °F 79% 29.98 in 6.2 mi East 6.9 mph - N/A   Mostly Cloudy
8:00 AM 84 °F - 76 °F 70% 29.99 in 19 mi East 10.4 mph - -  
8:00 AM 84.2 °F 92.3 °F 75.2 °F 74% 29.98 in 6.2 mi East 10.4 mph - N/A   Scattered Clouds
9:00 AM 86.0 °F 96.9 °F 77.0 °F 74% 29.98 in 6.2 mi East 12.7 mph - N/A   Scattered Clouds
10:00 AM 86.0 °F 95.1 °F 75.2 °F 70% 30.01 in 6.2 mi East 11.5 mph - N/A   Scattered Clouds
11:00 AM 84 °F - 76 °F 71% 30.01 in 9 mi ESE 6.9 mph - - Rain Light Rain Showers
11:00 AM 84.2 °F 94.1 °F 77.0 °F 79% 30.01 in 6.2 mi ESE 6.9 mph - N/A Rain Light Rain Showers
12:00 PM 86.0 °F 95.1 °F 75.2 °F 70% 29.98 in 6.2 mi East 16.1 mph - N/A   Mostly Cloudy
1:00 PM 87.8 °F 97.6 °F 75.2 °F 66% 29.98 in 6.2 mi East 17.3 mph - N/A   Scattered Clouds
2:00 PM 88 °F - 76 °F 59% 29.97 in 16 mi East 17.3 mph - -   Partly Cloudy
2:00 PM 87.8 °F 97.6 °F 75.2 °F 66% 29.95 in 6.2 mi East 17.3 mph - N/A   Scattered Clouds
3:00 PM 87.8 °F 97.6 °F 75.2 °F 66% 29.95 in 6.2 mi East 13.8 mph - N/A   Scattered Clouds
4:00 PM 87.8 °F 97.6 °F 75.2 °F 66% 29.95 in 6.2 mi East 15.0 mph - N/A   Mostly Cloudy
5:00 PM 87 °F - 75 °F 61% 29.96 in 16 mi East 16.1 mph - -   Mostly Cloudy
5:00 PM 86.0 °F 95.1 °F 75.2 °F 70% 29.95 in 6.2 mi East 16.1 mph - N/A   Mostly Cloudy
6:00 PM 86.0 °F 95.1 °F 75.2 °F 70% 29.95 in 6.2 mi ENE 17.3 mph - N/A   Scattered Clouds
7:00 PM 84.2 °F 92.3 °F 75.2 °F 74% 29.98 in 6.2 mi ENE 16.1 mph - N/A   Scattered Clouds
8:00 PM 84 °F - 75 °F 68% 29.99 in 16 mi East 13.8 mph - -   Partly Cloudy
8:00 PM 84.2 °F 92.3 °F 75.2 °F 74% 29.98 in 6.2 mi East 13.8 mph - N/A   Scattered Clouds
9:00 PM 84.2 °F 92.3 °F 75.2 °F 74% 29.98 in 6.2 mi ENE 9.2 mph - N/A   Partly Cloudy
10:00 PM 84.2 °F 92.3 °F 75.2 °F 74% 29.98 in 6.2 mi ENE 12.7 mph - N/A   Scattered Clouds
11:00 PM 84.2 °F 92.3 °F 75.2 °F 74% 29.98 in 6.2 mi ENE 11.5 mph - N/A   Mostly Cloudy